Location: Banksville Park
(38.5557°N, 75.1182°W)
Time: 01:29:07
(UTC+00:00)

Cosmos 44 Rocket - Pass Details

Date: 19 September 2020
Orbit: 644 x 746 km, 65.1° (Epoch: 30 October)

Event Time Altitude Azimuth Distance (km) Brightness Sun altitude
Exits shadow 09:28:03 - 191° (S) 2,915 6.3 -15.9°
Reaches altitude 10° 09:30:20 10° 184° (S) 2,050 5.5 -15.4°
Maximum altitude 09:34:41 41° 114° (ESE) 961 4.5 -14.6°
Drops below altitude 10° 09:39:09 10° 45° (NE) 2,111 6.7 -13.8°
Sets 09:41:36 0° 38° (NE) 3,047 7.5 -13.3°
